Home > Weather > Kielce > Past weeks

Flag for Poland Past Weather in Kielce, Poland — Yesterday and Last 2 Weeks

Now
69 °F

Thunderstorms. Overcast.


Feels Like: 69 °F
Forecast: 64 / 78 °F
Wind: 1 mph from North

Location: Kielce

Current Time: Jul 28, 2016 at 6:37:47 PM

Latest Report: Jul 28, 2016 at 5:00 PM


Visibility: 22 mi

Pressure: 29.95 "Hg

Humidity: 92%

Dew Point: 67 °F

Location of KielceLocation

Past Weather in Kielce — Graph

°F

Kielce Temperature Yesterday

Maximum temperature yesterday: 83 °F (at 1:00 PM)
Minimum temperature yesterday: 64 °F (at 4:00 AM)
Average temperature yesterday: 71 °F

High & Low Weather Summary for the Past Weeks

 TemperatureHumidityPressure
High85 °F (Jul 26, 2:00 PM)100% (Jul 20, 4:00 AM)30.20 "Hg (Jul 20, 4:00 AM)
Low46 °F (Jul 21, 5:00 AM)27% (Jul 22, 4:00 PM)29.58 "Hg (Jul 14, 2:00 PM)
Average66 °F74%30.01 "Hg
* Reported Jul 13 8:00 PM — Jul 28 5:00 PM, Kielce, Weather by CustomWeather, © 2016

Note: Actual official high and low records may vary slightly from our data, if they occured in-between our weather recording intervals... More about our weather records

Advertising

Kielce Weather History for the Previous 24 Hours

Scroll right to see more
 ConditionsComfort  
Time TempWeatherWind HumidityBarometerVisibility
5:00 PM
Thu, Jul 28
69 °FThunderstorms. Overcast.1 mph92%29.95 "Hg22 mi
3:00 PM72 °FThundershowers. Overcast.3 mph92%29.96 "Hg6 mi
2:00 PM74 °FThunderstorms. Overcast.No wind83%29.96 "Hg7 mi
1:00 PM76 °FThunderstorms. Overcast.2 mph68%29.96 "Hg12 mi
12:00 PM77 °FThunderstorms. Overcast.2 mph68%29.96 "Hg11 mi
11:00 AM75 °FOvercast.1 mph72%29.96 "Hg12 mi
10:00 AM73 °FOvercast.2 mph76%29.96 "Hg9 mi
9:00 AM71 °FFog.1 mph86%29.97 "Hg6 mi
8:00 AM67 °FFog.1 mph94%29.96 "Hg4 mi
7:00 AM64 °FFog.No wind97%29.96 "Hg4 mi
6:00 AM62 °FFog.No wind98%29.96 "Hg2 mi
5:00 AM62 °FFog.1 mph100%29.95 "Hg1 mi
4:00 AM62 °FFog.No wind96%29.95 "Hg2 mi
3:00 AM64 °FFog.1 mph96%29.95 "Hg2 mi
2:00 AM65 °FFog.No wind95%29.95 "Hg3 mi
1:00 AM65 °FFog.1 mph95%29.96 "Hg4 mi
12:00 AM66 °FFog.1 mph93%29.96 "Hg4 mi
11:00 PM
Wed, Jul 27
67 °FFog.1 mph89%29.96 "Hg6 mi
10:00 PM67 °FFog.1 mph93%29.96 "Hg4 mi
9:00 PM69 °FOvercast.No wind87%29.95 "Hg6 mi
8:00 PM71 °FOvercast.1 mph83%29.95 "Hg7 mi
7:00 PM72 °FOvercast.2 mph79%29.95 "Hg11 mi
6:00 PM73 °FThunderstorms. Partly sunny.1 mph81%29.94 "Hg9 mi
Weather by CustomWeather, © 2016

See weather overviewHow to use our weather pages